Date String (YYYY-MM-DD hh:mm:ss) UTC,Instrument flags,Ambient pressure (hPa),Sample flow (lpm),Bypass flow (lpm),Sample temperature (°C),Ambient temperature (°C),ASC tube jacket temperature (°C),LED temperature (°C),Box temperature (°C),Sample RH (%),Span deviation,Mass concentration (μg/m³),Mass concentration (μg/m³),Mass concentration (μg/m³)
DateTimeUTC,F1_M11,P_M11,Q1_M11,Q2_M11,T1_M11,T2_M11,T3_M11,T4_M11,T5_M11,U1_M11,ZSPAN_M11,X0_M11,X2_M11,X1_M11
2022-09-22 20:00:00,,0828.2,4.99,0.00,29.1,27.7,00.0,37.9,31.0,27.1,-000.7,0008.35,0005.72,0005.46
2022-09-22 20:01:00,,0828.3,5.01,0.00,29.2,27.7,00.0,37.9,31.0,27.1,-001.6,0008.22,0005.72,0005.47
2022-09-22 20:02:00,,0828.2,4.99,0.00,29.2,27.7,00.0,37.9,31.0,27.2,-002.0,0008.21,0005.73,0005.49
2022-09-22 20:03:00,,0828.1,5.00,0.00,29.2,27.7,00.0,37.9,31.0,27.5,-002.1,0008.31,0005.75,0005.50
2022-09-22 20:04:00,,0828.2,5.00,0.00,29.2,27.7,00.0,37.9,31.0,27.3,-002.0,0008.32,0005.75,0005.50
2022-09-22 20:05:00,,0828.3,4.99,0.00,29.2,27.8,00.0,37.9,31.0,27.1,-001.9,0008.51,0005.79,0005.52
2022-09-22 20:06:00,,0828.5,5.01,0.00,29.2,27.8,00.0,37.9,31.1,27.2,-001.7,0008.86,0005.82,0005.55
2022-09-22 20:07:00,,0828.5,5.01,0.00,29.2,27.8,00.0,37.9,31.1,27.1,-001.5,0008.90,0005.84,0005.56
2022-09-22 20:08:00,,0828.5,4.99,0.00,29.2,27.8,00.0,37.9,31.1,27.5,-001.8,0008.90,0005.84,0005.56
2022-09-22 20:09:00,,0828.6,5.00,0.00,29.2,27.9,00.0,37.9,31.1,28.0,-001.9,0008.87,0005.85,0005.58
2022-09-22 20:10:00,,0828.5,5.00,0.00,29.2,27.9,00.0,37.9,31.1,27.6,-002.2,0008.85,0005.86,0005.60
2022-09-22 20:11:00,,0828.5,5.01,0.00,29.2,27.9,00.0,37.9,31.1,27.4,-002.2,0008.93,0005.88,0005.61
2022-09-22 20:12:00,,0828.3,5.00,0.00,29.3,27.9,00.0,38.0,31.1,27.2,-002.3,0008.88,0005.87,0005.61
2022-09-22 20:13:00,,0828.1,5.00,0.00,29.3,27.9,00.0,38.0,31.2,27.3,-002.4,0008.84,0005.85,0005.59
2022-09-22 20:14:00,,0828.0,4.99,0.00,29.3,27.9,00.0,38.0,31.2,27.3,-002.3,0008.77,0005.83,0005.57
2022-09-22 20:15:00,,0827.9,5.01,0.00,29.3,27.9,00.0,38.0,31.2,27.1,-002.5,0008.69,0005.78,0005.53
2022-09-22 20:16:00,,0827.8,4.98,0.00,29.3,27.9,00.0,38.0,31.2,27.0,-002.6,0008.54,0005.71,0005.47
2022-09-22 20:17:00,,0827.8,5.00,0.00,29.3,27.8,00.0,38.0,31.2,27.1,-002.5,0008.07,0005.65,0005.43
2022-09-22 20:18:00,,0827.9,5.01,0.00,29.3,27.8,00.0,38.0,31.2,27.2,-002.7,0008.05,0005.64,0005.42
2022-09-22 20:19:00,,0827.8,5.01,0.00,29.3,27.8,00.0,38.0,31.2,27.2,-002.5,0008.09,0005.63,0005.41
2022-09-22 20:20:00,,0827.7,5.00,0.00,29.3,27.7,00.0,38.0,31.1,27.3,-002.3,0008.18,0005.63,0005.39
2022-09-22 20:21:00,,0827.9,5.01,0.00,29.3,27.7,00.0,38.0,31.1,27.5,-002.4,0008.25,0005.64,0005.38
2022-09-22 20:22:00,,0827.9,4.99,0.00,29.3,27.7,00.0,38.0,31.1,28.0,-002.7,0008.28,0005.64,0005.36
2022-09-22 20:23:00,,0827.8,5.00,0.00,29.3,27.7,00.0,38.0,31.1,27.8,-002.8,0008.40,0005.68,0005.37
2022-09-22 20:24:00,,0827.8,5.01,0.00,29.3,27.8,00.0,38.0,31.1,27.5,-002.7,0008.48,0005.73,0005.42
2022-09-22 20:25:00,,0827.9,4.98,0.00,29.3,27.7,00.0,38.0,31.1,27.6,-002.9,0008.52,0005.76,0005.44
2022-09-22 20:26:00,,0827.7,5.01,0.00,29.3,27.7,00.0,38.0,31.1,27.7,-002.8,0008.59,0005.82,0005.49
2022-09-22 20:27:00,,0827.7,5.00,0.00,29.3,27.8,00.0,38.0,31.1,27.9,-003.0,0008.63,0005.86,0005.54
2022-09-22 20:28:00,,0827.8,5.00,0.00,29.3,27.8,00.0,38.0,31.1,27.8,-003.1,0008.75,0005.92,0005.57
2022-09-22 20:29:00,,0827.8,5.01,0.00,29.3,27.7,00.0,38.0,31.1,27.7,-003.3,0008.82,0005.97,0005.61
2022-09-22 20:30:00,,0827.7,5.01,0.00,29.3,27.5,00.0,38.0,31.1,27.5,-003.5,0008.86,0006.02,0005.65
2022-09-22 20:31:00,,0827.7,5.00,0.00,29.2,27.5,00.0,38.0,31.0,27.5,-003.5,0008.85,0006.04,0005.67
2022-09-22 20:32:00,,0827.7,4.99,0.00,29.2,27.5,00.0,38.0,31.0,27.5,-003.4,0008.81,0006.05,0005.69
2022-09-22 20:33:00,,0827.7,5.00,0.00,29.2,27.5,00.0,38.0,31.0,27.6,-003.2,0008.80,0006.07,0005.73
2022-09-22 20:34:00,,0827.7,5.01,0.00,29.2,27.5,00.0,38.0,31.0,27.6,-003.1,0009.60,0006.08,0005.75
2022-09-22 20:35:00,,0827.6,4.99,0.00,29.2,27.5,00.0,38.0,31.0,27.8,-002.9,0009.75,0006.09,0005.76
2022-09-22 20:36:00,,0827.6,5.00,0.00,29.2,27.5,00.0,38.0,31.0,27.9,-002.6,0009.76,0006.11,0005.79
2022-09-22 20:37:00,,0827.7,4.99,0.00,29.2,27.5,00.0,38.0,31.0,27.9,-002.6,0009.82,0006.15,0005.83
2022-09-22 20:38:00,,0827.7,5.01,0.00,29.2,27.5,00.0,38.0,31.0,28.2,-002.3,0009.91,0006.20,0005.88
2022-09-22 20:39:00,,0827.7,5.00,0.00,29.2,27.5,00.0,38.0,31.0,28.2,-002.2,0009.94,0006.24,0005.94
2022-09-22 20:40:00,,0827.7,4.99,0.00,29.2,27.5,00.0,38.0,31.0,28.2,-002.3,0010.01,0006.29,0005.98
2022-09-22 20:41:00,,0827.5,5.01,0.00,29.2,27.5,00.0,38.0,31.0,28.3,-002.5,0010.07,0006.33,0006.02
2022-09-22 20:42:00,,0827.5,4.99,0.00,29.2,27.6,00.0,38.0,31.0,28.4,-002.8,0010.08,0006.35,0006.05
2022-09-22 20:43:00,,0827.4,5.01,0.00,29.2,27.7,00.0,38.0,31.0,28.4,-003.0,0010.16,0006.39,0006.08
2022-09-22 20:44:00,,0827.5,5.00,0.00,29.2,27.7,00.0,38.0,31.1,28.5,-003.0,0010.18,0006.41,0006.11
2022-09-22 20:45:00,,0827.5,5.01,0.00,29.2,27.8,00.0,38.0,31.1,28.7,-002.9,0009.42,0006.45,0006.14
2022-09-22 20:46:00,,0827.5,4.99,0.00,29.2,27.8,00.0,38.0,31.1,28.5,-003.0,0009.35,0006.51,0006.19
2022-09-22 20:47:00,,0827.5,5.00,0.00,29.2,27.9,00.0,38.0,31.1,28.2,-003.1,0009.36,0006.55,0006.25
2022-09-22 20:48:00,,0827.4,5.00,0.00,29.2,27.9,00.0,38.0,31.1,28.2,-003.1,0009.48,0006.60,0006.30
2022-09-22 20:49:00,,0827.4,5.00,0.00,29.3,27.9,00.0,38.0,31.1,28.1,-003.5,0009.54,0006.65,0006.34
2022-09-22 20:50:00,,0827.4,4.99,0.00,29.3,27.9,00.0,38.0,31.1,28.2,-003.7,0009.67,0006.68,0006.37
2022-09-22 20:51:00,,0827.4,5.00,0.00,29.3,27.9,00.0,38.0,31.2,28.0,-003.4,0009.73,0006.72,0006.41
2022-09-22 20:52:00,,0827.4,5.00,0.00,29.3,27.9,00.0,38.0,31.2,27.8,-003.1,0009.76,0006.77,0006.45
2022-09-22 20:53:00,,0827.4,5.00,0.00,29.3,28.0,00.0,38.0,31.2,27.7,-002.8,0009.81,0006.83,0006.52
2022-09-22 20:54:00,,0827.5,4.99,0.00,29.3,28.0,00.0,38.0,31.2,27.9,-002.5,0009.81,0006.89,0006.57
2022-09-22 20:55:00,,0827.4,5.01,0.00,29.3,28.0,00.0,38.0,31.2,28.2,-002.5,0009.93,0006.95,0006.60
2022-09-22 20:56:00,,0827.5,4.99,0.00,29.4,28.0,00.0,38.0,31.2,27.9,-002.5,0010.19,0006.98,0006.64
2022-09-22 20:57:00,,0827.5,5.01,0.00,29.4,28.0,00.0,38.0,31.2,27.6,-002.2,0010.42,0007.04,0006.69
2022-09-22 20:58:00,,0827.4,4.99,0.00,29.4,28.0,00.0,38.1,31.2,27.5,-002.0,0010.86,0007.11,0006.74
2022-09-22 20:59:00,,0827.5,5.00,0.00,29.4,28.0,00.0,38.1,31.2,27.3,-001.5,0010.86,0007.15,0006.78
